Starlink 32245

operational
NORAD ID: 62133 Int'l Des: 2024-222 Owner: SPXS Country: US Constellation: starlink
LEOCIRCULAR

关于 Starlink 32245

正在加载描述...

实时位置

正在加载3D地球...

即将过境

高度历史

Altitude vs Time

uPlot chart will show altitude changes over time

两行轨道根数

1 62133U 24222V 26036.16224012 .00083335 00000-0 29952-2 0 9993
2 62133 43.0013 319.9430 0002241 289.9482 70.1128 15.27672999 67939
Epoch: Feb 5, 2026 • Age: 9 hours

当前状态

高度 493.1 km
速度 7.62 km/s
星下点 -39.98°S, 76.34°W
发射日期 Nov 27, 2024
运行时间 1.1 years
类型 internet

技术详情

分类 Payload
质量 730.00 kg
干质量 700.00 kg
总质量 730.00 kg
长度 0.30 m
直径 4.10 m
跨度 29.00 m
形状 Box + pan
制造商 SPXS
平台类型 Starlink V2M
阶段状态 In Orbit
所有者/国家 SPXS/US

大型星座

Loading constellations...